GFSFLT2_prec_pwat_129.txt.gz
Precipitable_Water
1.07 1.08 1.08 1.08 1.10 1.11 1.08 1.06 1.06 1.09 1.14 1.17 1.19 1.21 1.23 1.29 1.30 1.30 1.31 1.25 1.20 1.21 1.23 1.24 1.28 1.31 1.29 1.26 1.25 1.32 1.33 1.37
1.02 1.07 1.10 1.09 1.08 1.08 1.10 1.09 1.09 1.09 1.13 1.16 1.20 1.23 1.29 1.31 1.31 1.30 1.28 1.25 1.21 1.21 1.24 1.27 1.32 1.32 1.30 1.25 1.25 1.31 1.38 1.38
1.00 1.01 1.03 1.06 1.05 1.08 1.12 1.14 1.12 1.13 1.10 1.15 1.20 1.26 1.29 1.29 1.27 1.27 1.29 1.28 1.22 1.19 1.20 1.25 1.29 1.28 1.27 1.25 1.25 1.31 1.32 1.33
0.97 0.97 0.96 1.01 1.02 1.08 1.14 1.17 1.18 1.16 1.18 1.18 1.20 1.23 1.25 1.27 1.27 1.27 1.28 1.29 1.25 1.20 1.18 1.21 1.27 1.27 1.28 1.25 1.23 1.27 1.30 1.29
0.99 0.96 0.97 0.95 0.97 1.04 1.08 1.12 1.14 1.17 1.18 1.20 1.21 1.22 1.23 1.22 1.23 1.26 1.27 1.29 1.27 1.22 1.18 1.18 1.21 1.22 1.25 1.26 1.25 1.23 1.26 1.29
1.01 1.01 0.96 0.96 1.00 1.02 1.04 1.01 1.07 1.10 1.14 1.18 1.18 1.16 1.16 1.16 1.15 1.21 1.22 1.24 1.23 1.22 1.19 1.18 1.16 1.17 1.21 1.23 1.25 1.25 1.21 1.23
0.96 0.99 0.99 0.98 0.99 1.00 1.01 0.99 1.03 1.07 1.11 1.14 1.15 1.09 1.08 1.13 1.13 1.17 1.19 1.21 1.21 1.19 1.16 1.15 1.12 1.11 1.14 1.21 1.22 1.23 1.21 1.21
0.95 0.94 0.98 1.00 0.98 0.99 0.99 1.03 1.05 1.07 1.07 1.11 1.13 1.10 1.06 1.07 1.09 1.13 1.18 1.22 1.23 1.22 1.16 1.14 1.13 1.10 1.07 1.13 1.19 1.23 1.22 1.19
0.89 0.94 0.99 0.99 1.00 1.01 1.00 1.01 1.05 1.03 1.04 1.07 1.08 1.09 1.05 1.03 1.04 1.09 1.15 1.23 1.25 1.26 1.23 1.20 1.16 1.13 1.05 1.07 1.14 1.17 1.19 1.15
0.98 0.94 0.97 1.03 1.02 1.01 0.99 1.00 0.97 0.99 0.99 1.03 1.05 1.08 1.07 1.03 1.02 1.05 1.15 1.20 1.24 1.23 1.21 1.16 1.14 1.12 1.07 1.07 1.09 1.12 1.14 1.13
1.02 0.99 0.94 1.00 1.07 1.03 0.98 0.98 0.95 0.94 0.97 0.97 1.01 1.06 1.06 1.03 1.02 1.07 1.14 1.16 1.18 1.21 1.20 1.18 1.12 1.11 1.12 1.11 1.09 1.10 1.13 1.11
1.01 1.13 0.96 1.01 1.08 1.06 1.01 0.99 0.99 0.99 0.93 0.94 0.98 1.01 1.04 1.04 1.05 1.05 1.11 1.12 1.13 1.18 1.17 1.22 1.18 1.16 1.13 1.13 1.16 1.14 1.19 1.17
0.97 1.15 1.19 1.04 1.05 0.97 0.93 0.88 0.96 0.98 0.98 1.01 1.04 1.05 1.05 1.08 1.08 1.12 1.12 1.04 1.06 1.14 1.17 1.16 1.15 1.21 1.12 1.10 1.17 1.18 1.15 1.16
0.93 1.06 1.27 1.26 1.15 1.06 1.03 1.05 1.08 1.12 1.12 1.12 1.11 1.12 1.15 1.17 1.15 1.15 1.17 1.13 1.12 1.13 1.14 1.13 1.16 1.22 1.06 1.05 0.89 0.99 1.10 1.12
0.85 0.99 1.18 1.33 1.38 1.25 1.22 1.24 1.27 1.23 1.22 1.19 1.21 1.17 1.21 1.30 1.28 1.27 1.25 1.27 1.18 1.17 1.19 1.16 1.07 1.16 1.20 1.06 0.86 0.75 0.89 1.07
0.79 1.04 1.21 1.42 1.46 1.31 1.22 1.13 1.09 1.11 1.20 1.30 1.36 1.35 1.36 1.49 1.52 1.51 1.45 1.36 1.30 1.29 1.32 1.28 1.20 1.05 1.18 1.22 1.13 1.02 0.82 0.78
0.77 0.98 1.09 1.20 1.39 1.36 1.34 1.26 1.24 1.24 1.25 1.30 1.40 1.47 1.52 1.58 1.59 1.69 1.56 1.50 1.46 1.42 1.44 1.35 1.31 1.22 1.11 1.12 1.12 1.08 1.05 0.89
0.78 0.82 0.94 1.16 1.31 1.35 1.29 1.20 1.16 1.14 1.15 1.13 1.22 1.36 1.51 1.54 1.55 1.33 1.48 1.57 1.49 1.42 1.44 1.41 1.40 1.38 1.26 1.16 1.07 1.03 0.99 0.97
0.82 0.83 0.82 0.94 1.02 1.08 1.09 1.11 1.12 1.10 1.12 1.15 1.18 1.22 1.25 1.28 1.32 1.27 1.30 1.47 1.49 1.46 1.40 1.36 1.33 1.32 1.32 1.21 1.20 1.16 1.14 1.07
0.84 0.81 0.81 0.87 0.92 0.97 0.99 1.01 1.03 1.05 1.07 1.09 1.12 1.17 1.21 1.24 1.22 1.17 1.29 1.39 1.43 1.44 1.36 1.28 1.28 1.30 1.38 1.38 1.25 1.18 1.15 1.08

GFSFLT2_prec_pwat_132.txt.gz
Precipitable_Water
1.30 1.24 1.22 1.16 1.11 1.11 1.09 1.11 1.14 1.20 1.24 1.23 1.19 1.21 1.20 1.25 1.27 1.27 1.25 1.22 1.15 1.15 1.20 1.24 1.24 1.29 1.26 1.24 1.21 1.27 1.36 1.39
1.26 1.27 1.25 1.22 1.19 1.14 1.10 1.10 1.12 1.15 1.21 1.24 1.24 1.23 1.22 1.28 1.31 1.29 1.25 1.18 1.16 1.19 1.22 1.26 1.27 1.30 1.28 1.25 1.20 1.26 1.39 1.39
1.28 1.27 1.25 1.24 1.24 1.18 1.13 1.11 1.14 1.16 1.22 1.26 1.28 1.30 1.31 1.35 1.35 1.30 1.23 1.19 1.20 1.21 1.23 1.26 1.27 1.29 1.26 1.23 1.20 1.30 1.35 1.35
1.26 1.26 1.21 1.23 1.21 1.20 1.16 1.17 1.19 1.21 1.22 1.28 1.29 1.33 1.37 1.40 1.41 1.33 1.27 1.21 1.21 1.22 1.23 1.24 1.26 1.29 1.27 1.26 1.21 1.28 1.32 1.31
1.27 1.25 1.22 1.20 1.16 1.17 1.18 1.18 1.19 1.23 1.23 1.24 1.28 1.36 1.39 1.39 1.40 1.35 1.32 1.25 1.21 1.20 1.21 1.22 1.23 1.27 1.26 1.24 1.25 1.25 1.26 1.31
1.31 1.20 1.18 1.17 1.16 1.12 1.15 1.16 1.18 1.19 1.23 1.25 1.24 1.28 1.32 1.31 1.33 1.30 1.29 1.25 1.22 1.20 1.19 1.21 1.24 1.24 1.22 1.24 1.25 1.24 1.24 1.25
1.29 1.23 1.14 1.14 1.13 1.13 1.12 1.14 1.16 1.17 1.21 1.25 1.25 1.23 1.23 1.27 1.29 1.33 1.30 1.28 1.26 1.23 1.23 1.23 1.22 1.18 1.15 1.18 1.22 1.23 1.24 1.20
1.23 1.32 1.16 1.14 1.09 1.12 1.12 1.16 1.15 1.18 1.18 1.20 1.22 1.22 1.22 1.24 1.26 1.27 1.29 1.28 1.29 1.26 1.25 1.24 1.23 1.21 1.12 1.12 1.15 1.20 1.24 1.22
1.05 1.30 1.22 1.10 1.04 1.10 1.12 1.14 1.15 1.12 1.14 1.18 1.19 1.22 1.20 1.19 1.19 1.21 1.25 1.29 1.28 1.28 1.27 1.27 1.22 1.23 1.17 1.13 1.12 1.13 1.14 1.17
0.99 1.19 1.26 1.10 1.03 1.08 1.13 1.13 1.14 1.13 1.13 1.15 1.16 1.18 1.20 1.16 1.13 1.13 1.22 1.26 1.26 1.23 1.23 1.19 1.19 1.19 1.17 1.16 1.13 1.13 1.12 1.12
0.71 1.11 1.19 1.17 1.06 1.05 1.14 1.14 1.11 1.10 1.14 1.11 1.13 1.12 1.16 1.12 1.10 1.11 1.20 1.19 1.20 1.19 1.18 1.17 1.14 1.15 1.16 1.19 1.18 1.13 1.11 1.15
0.55 0.97 1.18 1.19 1.12 1.06 1.10 1.14 1.12 1.12 1.08 1.09 1.12 1.13 1.13 1.11 1.11 1.10 1.15 1.14 1.15 1.17 1.15 1.21 1.18 1.16 1.15 1.17 1.19 1.16 1.14 1.12
0.43 0.68 1.14 1.22 1.13 1.01 0.96 0.97 1.01 1.05 1.07 1.07 1.08 1.09 1.14 1.12 1.11 1.09 1.14 1.10 1.11 1.14 1.15 1.12 1.14 1.23 1.16 1.14 1.16 1.20 1.18 1.17
0.32 0.55 1.08 1.18 1.23 1.09 0.98 0.98 1.00 1.00 1.05 1.04 1.06 1.06 1.09 1.12 1.11 1.15 1.14 1.16 1.20 1.17 1.15 1.10 1.15 1.23 1.05 1.06 0.90 1.01 1.13 1.17
0.25 0.45 0.94 1.16 1.21 1.25 1.09 1.07 1.08 1.00 1.02 1.03 1.11 1.12 1.10 1.13 1.18 1.22 1.25 1.25 1.21 1.23 1.24 1.21 1.09 1.20 1.25 1.05 0.90 0.80 0.96 1.11
0.26 0.38 0.83 1.17 1.23 1.28 1.05 0.93 0.91 0.92 0.99 1.11 1.14 1.18 1.19 1.24 1.26 1.29 1.29 1.31 1.28 1.34 1.42 1.37 1.32 1.16 1.29 1.25 1.19 1.10 0.90 0.84
0.29 0.35 0.72 1.16 1.28 1.30 1.21 1.00 1.04 1.06 1.16 1.27 1.33 1.38 1.41 1.41 1.36 1.33 1.33 1.43 1.45 1.56 1.53 1.49 1.45 1.41 1.36 1.26 1.21 1.14 1.10 0.98
0.51 0.46 0.72 1.12 1.32 1.32 1.34 1.20 1.22 1.22 1.29 1.34 1.42 1.47 1.49 1.52 1.51 1.43 1.44 1.46 1.41 1.36 1.39 1.44 1.43 1.44 1.52 1.46 1.29 1.16 1.05 1.01
0.71 0.71 0.92 1.15 1.33 1.41 1.47 1.46 1.45 1.38 1.38 1.39 1.41 1.36 1.31 1.33 1.39 1.38 1.40 1.45 1.36 1.26 1.23 1.28 1.44 1.39 1.44 1.48 1.45 1.34 1.30 1.18
0.59 0.71 0.94 1.09 1.23 1.30 1.38 1.41 1.40 1.32 1.38 1.38 1.35 1.27 1.28 1.34 1.35 1.35 1.36 1.37 1.27 1.20 1.21 1.30 1.35 1.39 1.36 1.41 1.36 1.35 1.40 1.37

GFSFLT2_prec_pwat_135.txt.gz
Precipitable_Water
1.43 1.36 1.28 1.20 1.17 1.17 1.15 1.15 1.16 1.19 1.23 1.25 1.23 1.22 1.21 1.18 1.22 1.23 1.24 1.26 1.19 1.12 1.15 1.21 1.22 1.22 1.23 1.21 1.16 1.22 1.37 1.38
1.46 1.40 1.33 1.24 1.22 1.20 1.18 1.17 1.15 1.17 1.24 1.26 1.24 1.23 1.24 1.24 1.29 1.29 1.28 1.28 1.17 1.15 1.19 1.22 1.24 1.25 1.23 1.20 1.15 1.19 1.40 1.37
1.48 1.41 1.37 1.34 1.30 1.25 1.20 1.18 1.19 1.19 1.24 1.28 1.27 1.28 1.28 1.30 1.31 1.34 1.32 1.26 1.19 1.20 1.22 1.22 1.24 1.27 1.25 1.20 1.13 1.24 1.35 1.36
1.50 1.44 1.39 1.38 1.34 1.31 1.22 1.19 1.20 1.23 1.25 1.29 1.30 1.30 1.31 1.32 1.34 1.38 1.30 1.25 1.22 1.23 1.23 1.22 1.23 1.27 1.26 1.23 1.17 1.38 1.25 1.36
1.46 1.49 1.45 1.39 1.34 1.33 1.25 1.21 1.19 1.23 1.25 1.28 1.29 1.31 1.37 1.35 1.46 1.41 1.32 1.25 1.22 1.23 1.22 1.21 1.19 1.32 1.31 1.24 1.24 1.34 1.27 1.28
1.44 1.55 1.49 1.43 1.37 1.31 1.27 1.19 1.19 1.21 1.26 1.31 1.26 1.31 1.37 1.40 1.41 1.43 1.30 1.24 1.19 1.20 1.20 1.20 1.23 1.31 1.37 1.31 1.28 1.26 1.31 1.30
1.08 1.51 1.54 1.45 1.38 1.32 1.25 1.19 1.21 1.23 1.27 1.31 1.32 1.29 1.32 1.39 1.38 1.39 1.30 1.31 1.23 1.19 1.19 1.17 1.23 1.25 1.22 1.22 1.28 1.25 1.29 1.25
0.72 1.31 1.52 1.54 1.38 1.32 1.26 1.23 1.27 1.28 1.30 1.29 1.32 1.30 1.31 1.38 1.35 1.33 1.31 1.30 1.28 1.25 1.18 1.23 1.20 1.24 1.19 1.17 1.20 1.21 1.29 1.25
0.62 1.12 1.43 1.50 1.47 1.31 1.27 1.23 1.23 1.25 1.29 1.33 1.33 1.37 1.36 1.33 1.33 1.27 1.30 1.33 1.31 1.30 1.26 1.29 1.23 1.22 1.22 1.20 1.19 1.13 1.14 1.18
0.47 0.77 1.20 1.41 1.53 1.41 1.24 1.22 1.18 1.28 1.27 1.33 1.33 1.37 1.38 1.34 1.32 1.33 1.36 1.29 1.26 1.23 1.21 1.17 1.16 1.16 1.16 1.20 1.20 1.17 1.17 1.13
0.28 0.48 0.83 1.27 1.46 1.55 1.29 1.23 1.18 1.19 1.24 1.28 1.28 1.30 1.35 1.29 1.29 1.27 1.35 1.30 1.24 1.21 1.18 1.15 1.14 1.13 1.13 1.16 1.19 1.16 1.20 1.25
0.28 0.31 0.53 1.14 1.36 1.50 1.42 1.26 1.22 1.19 1.17 1.18 1.28 1.26 1.28 1.29 1.24 1.27 1.29 1.30 1.23 1.21 1.16 1.20 1.17 1.16 1.15 1.15 1.19 1.23 1.20 1.16
0.32 0.30 0.36 0.73 1.23 1.31 1.39 1.17 1.15 1.09 1.12 1.13 1.21 1.19 1.26 1.25 1.25 1.24 1.19 1.24 1.22 1.19 1.18 1.15 1.14 1.23 1.16 1.13 1.18 1.25 1.23 1.20
0.37 0.33 0.33 0.47 1.16 1.30 1.36 1.35 1.16 1.08 1.07 1.18 1.16 1.21 1.20 1.26 1.21 1.21 1.15 1.17 1.22 1.28 1.19 1.14 1.17 1.23 1.06 1.07 0.92 1.03 1.14 1.18
0.42 0.36 0.34 0.36 0.62 1.33 1.35 1.44 1.30 1.10 1.01 1.12 1.15 1.18 1.17 1.18 1.20 1.22 1.20 1.16 1.17 1.27 1.25 1.21 1.11 1.19 1.23 1.04 0.90 0.82 0.96 1.19
0.56 0.41 0.36 0.37 0.50 1.20 1.25 1.27 1.11 1.04 0.97 0.98 1.07 1.11 1.09 1.10 1.17 1.22 1.21 1.26 1.23 1.34 1.31 1.31 1.27 1.11 1.25 1.28 1.20 1.16 0.97 0.94
0.69 0.49 0.39 0.37 0.41 0.86 1.28 1.27 1.32 1.15 1.03 0.95 1.02 1.14 1.14 1.11 1.12 1.16 1.21 1.33 1.31 1.29 1.34 1.40 1.43 1.37 1.39 1.32 1.34 1.27 1.27 1.10
0.66 0.66 0.43 0.38 0.36 0.70 1.31 1.19 1.37 1.19 1.07 0.98 1.02 1.13 1.15 1.18 1.19 1.18 1.28 1.30 1.28 1.25 1.27 1.39 1.42 1.41 1.41 1.38 1.38 1.29 1.24 1.20
0.53 0.59 0.65 0.64 0.58 0.72 1.30 1.21 1.39 1.31 1.11 1.05 1.07 1.12 1.19 1.22 1.38 1.45 1.51 1.51 1.48 1.35 1.25 1.22 1.19 1.19 1.31 1.32 1.38 1.34 1.30 1.38
0.58 0.60 0.76 0.75 0.66 0.86 1.48 1.19 1.45 1.43 1.27 1.23 1.22 1.18 1.27 1.52 1.58 1.51 1.55 1.49 1.39 1.30 1.24 1.22 1.13 1.16 1.27 1.28 1.32 1.33 1.30 1.37

GFSFLT2_prec_pwat_138.txt.gz
Precipitable_Water
1.56 1.43 1.28 1.28 1.26 1.23 1.21 1.19 1.19 1.19 1.19 1.21 1.23 1.25 1.18 1.17 1.17 1.22 1.26 1.29 1.25 1.15 1.13 1.18 1.19 1.18 1.18 1.13 1.07 1.22 1.29 1.43
1.48 1.38 1.32 1.30 1.30 1.27 1.24 1.22 1.22 1.21 1.20 1.21 1.24 1.26 1.24 1.22 1.20 1.24 1.25 1.26 1.23 1.14 1.15 1.18 1.18 1.17 1.17 1.14 1.08 1.20 1.32 1.34
1.50 1.36 1.34 1.33 1.31 1.29 1.28 1.25 1.23 1.23 1.25 1.25 1.28 1.26 1.24 1.26 1.23 1.25 1.27 1.26 1.20 1.15 1.17 1.18 1.17 1.16 1.16 1.13 1.05 1.20 1.31 1.39
1.41 1.53 1.43 1.38 1.36 1.33 1.29 1.29 1.26 1.24 1.27 1.30 1.30 1.27 1.23 1.26 1.26 1.31 1.27 1.24 1.17 1.16 1.17 1.16 1.14 1.14 1.16 1.13 1.11 1.24 1.45 1.29
1.26 1.50 1.60 1.50 1.38 1.39 1.33 1.27 1.26 1.24 1.25 1.29 1.29 1.24 1.27 1.26 1.28 1.31 1.29 1.22 1.16 1.17 1.17 1.14 1.09 1.18 1.20 1.13 1.11 1.25 1.38 1.18
0.70 1.41 1.55 1.64 1.57 1.45 1.37 1.27 1.24 1.19 1.22 1.26 1.24 1.20 1.26 1.26 1.34 1.37 1.34 1.25 1.15 1.15 1.15 1.13 1.12 1.19 1.22 1.32 1.19 1.26 1.37 1.51
0.53 0.86 1.49 1.63 1.66 1.56 1.46 1.34 1.26 1.23 1.19 1.23 1.26 1.22 1.21 1.33 1.41 1.42 1.38 1.27 1.16 1.14 1.13 1.13 1.14 1.17 1.27 1.18 1.15 1.19 1.26 1.44
0.45 0.59 1.30 1.50 1.62 1.63 1.57 1.44 1.38 1.29 1.21 1.20 1.27 1.30 1.26 1.32 1.37 1.39 1.40 1.30 1.23 1.18 1.12 1.14 1.11 1.17 1.17 1.21 1.14 1.09 1.17 1.23
0.29 0.44 0.64 1.50 1.44 1.50 1.67 1.53 1.44 1.33 1.29 1.28 1.24 1.31 1.33 1.35 1.34 1.38 1.38 1.28 1.25 1.23 1.18 1.27 1.24 1.19 1.19 1.19 1.09 1.20 1.15 1.17
0.32 0.32 0.45 1.00 1.41 1.44 1.55 1.66 1.49 1.42 1.35 1.36 1.34 1.26 1.31 1.36 1.33 1.37 1.41 1.35 1.24 1.24 1.15 1.12 1.17 1.17 1.20 1.22 1.17 1.15 1.17 1.14
0.35 0.36 0.36 0.46 0.95 1.41 1.35 1.65 1.62 1.40 1.37 1.35 1.39 1.38 1.28 1.33 1.37 1.35 1.40 1.38 1.30 1.26 1.17 1.24 1.12 1.15 1.17 1.26 1.24 1.20 1.18 1.14
0.60 0.41 0.37 0.43 0.48 1.11 1.39 1.32 1.62 1.59 1.45 1.31 1.38 1.37 1.33 1.30 1.38 1.33 1.36 1.35 1.35 1.25 1.21 1.26 1.18 1.09 1.08 1.13 1.17 1.20 1.22 1.27
0.57 0.58 0.53 0.37 0.43 0.59 1.12 1.29 1.35 1.57 1.53 1.38 1.36 1.37 1.36 1.30 1.32 1.32 1.31 1.24 1.29 1.27 1.17 1.16 1.19 1.21 1.18 1.11 1.14 1.20 1.19 1.23
0.58 0.61 0.61 0.56 0.34 0.45 0.90 1.21 1.38 1.43 1.63 1.40 1.30 1.31 1.26 1.26 1.29 1.29 1.27 1.17 1.26 1.29 1.18 1.13 1.20 1.27 1.09 1.04 0.89 1.02 1.14 1.19
0.56 0.60 0.64 0.67 0.45 0.36 0.45 1.08 1.33 1.38 1.52 1.49 1.29 1.27 1.21 1.16 1.28 1.34 1.27 1.20 1.15 1.28 1.24 1.11 1.02 1.18 1.22 1.02 0.87 0.79 0.96 1.15
0.59 0.63 0.67 0.71 0.53 0.43 0.39 0.49 1.16 1.28 1.38 1.58 1.43 1.29 1.18 1.19 1.19 1.27 1.24 1.22 1.12 1.21 1.26 1.22 1.17 1.01 1.19 1.23 1.23 1.19 1.01 0.98
0.61 0.64 0.67 0.74 0.71 0.52 0.41 0.44 0.66 1.31 1.36 1.54 1.48 1.34 1.26 1.15 1.17 1.18 1.24 1.21 1.18 1.16 1.16 1.18 1.21 1.09 1.10 1.16 1.19 1.29 1.30 1.14
0.60 0.61 0.63 0.69 0.73 0.68 0.56 0.47 0.49 0.96 1.33 1.37 1.55 1.40 1.31 1.19 1.17 1.16 1.20 1.27 1.24 1.14 1.14 1.15 1.11 1.08 1.12 1.19 1.19 1.09 1.09 1.20
0.60 0.61 0.57 0.62 0.66 0.73 0.67 0.56 0.56 0.61 1.31 1.29 1.47 1.37 1.27 1.13 1.08 1.04 1.09 1.22 1.22 1.19 1.15 1.12 1.08 1.19 1.21 1.19 1.23 1.12 1.19 1.31
0.58 0.57 0.56 0.58 0.60 0.66 0.68 0.64 0.65 0.65 1.29 1.34 1.40 1.34 1.27 1.21 1.08 1.07 1.07 1.19 1.22 1.22 1.21 1.25 1.29 1.29 1.21 1.17 1.16 1.13 1.21 1.29

GFSFLT2_prec_pwat_144.txt.gz
Precipitable_Water
1.36 1.45 1.48 1.42 1.34 1.34 1.35 1.33 1.28 1.24 1.22 1.19 1.16 1.15 1.11 1.05 1.04 1.09 1.14 1.17 1.15 1.09 1.06 1.07 1.12 1.12 1.11 1.18 1.22 1.20 1.16 1.22
1.10 1.31 1.45 1.45 1.42 1.36 1.38 1.37 1.32 1.29 1.26 1.25 1.22 1.20 1.17 1.11 1.08 1.10 1.13 1.15 1.14 1.09 1.05 1.08 1.10 1.09 1.10 1.13 1.20 1.19 1.18 1.23
1.02 1.15 1.35 1.50 1.50 1.43 1.38 1.40 1.38 1.33 1.30 1.29 1.27 1.25 1.22 1.18 1.13 1.11 1.15 1.15 1.13 1.09 1.05 1.08 1.09 1.08 1.07 1.10 1.19 1.19 1.18 1.19
0.90 0.95 1.22 1.52 1.61 1.52 1.42 1.40 1.41 1.38 1.33 1.31 1.29 1.26 1.24 1.22 1.17 1.15 1.16 1.18 1.16 1.10 1.05 1.08 1.08 1.06 1.05 1.07 1.12 1.18 1.22 1.31
0.57 0.74 1.02 1.12 1.36 1.64 1.58 1.51 1.45 1.43 1.38 1.35 1.34 1.29 1.27 1.25 1.22 1.21 1.18 1.19 1.16 1.12 1.06 1.07 1.06 1.04 1.02 1.02 1.08 1.15 1.24 1.27
0.52 0.60 0.62 0.67 1.23 1.48 1.68 1.66 1.57 1.45 1.45 1.39 1.31 1.30 1.26 1.22 1.19 1.18 1.17 1.18 1.14 1.13 1.07 1.06 1.07 1.06 1.05 1.01 1.06 1.14 1.21 1.25
0.44 0.50 0.57 0.61 0.65 1.10 1.50 1.55 1.70 1.63 1.51 1.47 1.40 1.26 1.24 1.24 1.19 1.18 1.17 1.18 1.16 1.13 1.09 1.06 1.06 1.07 1.17 1.14 1.08 1.15 1.19 1.18
0.42 0.42 0.47 0.54 0.58 0.62 0.73 1.46 1.61 1.81 1.74 1.64 1.49 1.40 1.28 1.24 1.21 1.16 1.16 1.19 1.20 1.18 1.09 1.05 1.04 1.05 1.11 1.13 1.16 1.18 1.15 1.13
0.41 0.42 0.44 0.46 0.50 0.55 0.59 0.85 1.47 1.68 1.83 1.67 1.70 1.54 1.38 1.30 1.23 1.18 1.17 1.20 1.21 1.21 1.16 1.10 1.06 1.06 1.07 1.13 1.10 1.18 1.09 1.19
0.42 0.42 0.41 0.42 0.44 0.49 0.54 0.58 0.79 1.36 1.59 1.73 1.75 1.80 1.61 1.40 1.28 1.24 1.22 1.21 1.24 1.22 1.16 1.07 1.03 1.03 1.03 1.07 1.13 1.11 1.12 1.12
0.40 0.41 0.39 0.39 0.41 0.45 0.49 0.54 0.60 0.73 1.32 1.58 1.79 1.66 1.76 1.64 1.38 1.30 1.29 1.23 1.24 1.26 1.20 1.10 1.04 1.04 1.01 1.06 1.15 1.10 1.10 1.11
0.40 0.39 0.38 0.39 0.41 0.44 0.47 0.49 0.51 0.62 0.78 1.12 1.50 1.65 1.73 1.81 1.60 1.31 1.31 1.27 1.25 1.29 1.22 1.19 1.09 0.99 1.05 1.09 1.06 1.17 1.17 1.11
0.39 0.37 0.37 0.37 0.38 0.39 0.41 0.43 0.47 0.50 0.61 0.80 1.12 1.47 1.64 1.74 1.77 1.51 1.29 1.26 1.24 1.28 1.27 1.16 1.08 1.05 1.02 1.00 1.11 1.15 1.15 1.14
0.38 0.38 0.39 0.39 0.41 0.42 0.44 0.47 0.52 0.55 0.58 0.62 0.85 1.08 1.45 1.52 1.72 1.72 1.47 1.25 1.29 1.26 1.26 1.17 1.14 1.12 0.96 0.93 0.82 0.97 1.00 1.09
0.41 0.42 0.43 0.43 0.45 0.47 0.48 0.49 0.51 0.54 0.59 0.58 0.68 0.87 1.10 1.39 1.50 1.67 1.54 1.43 1.27 1.26 1.23 1.22 1.03 1.11 1.07 0.95 0.76 0.67 0.84 1.01
0.44 0.46 0.46 0.46 0.48 0.48 0.48 0.46 0.44 0.51 0.57 0.63 0.60 0.63 0.74 0.94 1.36 1.58 1.86 1.60 1.35 1.31 1.25 1.22 1.20 1.01 1.11 1.11 1.03 0.90 0.72 0.69
0.45 0.48 0.49 0.50 0.50 0.50 0.51 0.50 0.54 0.56 0.58 0.62 0.63 0.62 0.67 0.76 0.92 1.30 1.42 1.49 1.60 1.35 1.26 1.26 1.24 1.13 1.03 1.00 1.00 0.95 0.93 0.80
0.48 0.49 0.51 0.54 0.52 0.53 0.53 0.54 0.54 0.56 0.58 0.60 0.67 0.67 0.66 0.65 0.74 1.06 1.39 1.46 1.75 1.52 1.36 1.31 1.24 1.22 1.14 1.07 0.95 0.87 0.82 0.83
0.50 0.51 0.52 0.55 0.54 0.54 0.56 0.59 0.60 0.58 0.58 0.61 0.64 0.66 0.67 0.65 0.72 0.85 1.13 1.45 1.47 1.67 1.55 1.32 1.30 1.22 1.11 1.06 1.07 1.03 1.01 0.97
0.51 0.53 0.53 0.55 0.55 0.54 0.57 0.60 0.60 0.60 0.61 0.64 0.65 0.70 0.76 0.80 0.72 0.73 0.82 1.20 1.55 1.51 1.52 1.39 1.36 1.24 1.11 1.09 1.07 1.10 1.08 1.02